Location: Christianberg
(48.9086°N, 14.0209°E)
Time: 22:34:27
(UTC+00:00)

USA 215 - Pass Details

Date: 20 June 2021
Orbit: 1100 x 1107 km, 123.0° (Epoch: 01 August)

Event Time Altitude Azimuth Distance (km) Brightness Sun altitude
Rises 00:35:19 0° 65° (ENE) 3,923 6.9 -14.9°
Reaches altitude 10° 00:37:53 10° 60° (ENE) 2,964 6.3 -14.8°
Maximum altitude 00:44:06 48° 348° (NNW) 1,406 4.2 -14.4°
Drops below altitude 10° 00:50:18 10° 277° (W) 2,960 5.3 -14.0°
Sets 00:52:51 0° 272° (W) 3,917 5.9 -13.8°
